CZ-2C DEB, 43534

Orbit data source: Space-Track

CZ-2C DEB, 43534 is space debris in SSO originally from a launch on Mon, 09 Jul 2018 UTC launched from the Jiuquan Satellite Launch Center, China (JSC). Debris objects in space refer to the collection of defunct objects orbiting the Earth. Examples of debris include non-operational satellites, rocket bodies, and fragments generated from explosions, collisions, or faulty payload assembly.

Loading next visibility...
Identifier
43534, 2018-056F
Orbit
SSO
Country
Flag of CNCN / PRC
Related business
Manufacturer
CAST?
Mission
Spacecraft
Bus & Motor
Unknown
Mass
~50 kg wet, ~50 kg dry
Launch date (UTC)
2018-07-09 (7 years ago)
Launch vehicle
Unknown
Launch site
Jiuquan Satellite Launch Center, China (JSC)
Object type
Payload
Rocket body
Debris
Shape & HBR
Cone, 1.4 m
Radar Cross Section
3.657 m², Large (>1 m²)

Expand to show TLE details & history
Last TLE update: 17 hours ago

TLE from 17 hours ago
0 CZ-2C DEB
1 43534U 18056F   25259.01370806  .00017456  00000-0  82772-3 0  9999
2 43534  98.1107  61.4779 0014522 245.2494 114.7228 15.19274899391996
Epoch: 2025-09-16T00:19Z
TLE epoch observation values (Epoch: 2025-09-16T00:19:44.376Z)
Latitude
Longitude
61.3329°
Altitude
515.294 km
Speed
7.604 km/s
True Right ascension
04h 05m 54s
True Declination
0° 00' 00"
Sunlit
Object was in partial shadow at epoch
Visualization orbit readout
Latitude
Unknown
Longitude
Unknown
Altitude
Unknown
Speed
Unknown
Apparent Right ascension
Unknown
Apparent Declination
Unknown
Sunlit
N/A
Visualization observer readout
Local Sidereal Time
10:17:22
Azimuth
Unknown
Elevation
Unknown
Doppler factor
Unknown
Orbital elements
Apogee altitude
515.025 km
Perigee altitude
495.033 km
Semi-major axis
6,883.166 km
Eccentricity
0.00145
Inclination
98.1107°
RAAN
61.4779°
Arg. of periapsis
245.2494°
True anomaly
114.87384°
Mean anomaly
114.7228°
Eccentric anomaly
114.79833°
Mean motion
3.80068 °/min
Orbital period
94.72 mins
BSTAR
0.00082772
Loading maneuver chart data...
Computing Atmospheric mass density...
Loading historical data...
Loading historical data...
Loading historical data...
Loading historical data...
Loading historical data...
Loading historical data...
Loading historical data...

Documentation

Showing up to 5 results
|